FW7665 Weather Reports


time (UTC)temp
C
wind
direction
speed
KPH
gust
KPH
rain 1hr
cm
rain 24hr
cm
rain mn
cm
humidity
%
barometer
mb
20220812170903 24 0 0.0 0.0 0.00 0.00 0.00 41 1031.2
20220812170024 23 0 0.0 0.0 0.00 0.00 0.00 43 1031.2
20220812165424 23 0 0.0 0.0 0.00 0.00 0.00 41 1031.2
20220812164525 23 0 0.0 0.0 0.00 0.00 0.00 44 1031.2
20220812163603 22 0 0.0 0.0 0.00 0.00 0.00 42 1031.2
20220812162725 22 0 0.0 0.0 0.00 0.00 0.00 43 1031.2
20220812161803 21 0 0.0 0.0 0.00 0.00 0.00 45 1031.2
20220812160903 21 0 0.0 0.0 0.00 0.00 0.00 46 1031.2
20220812160045 20 0 0.0 0.0 0.00 0.00 0.00 46 1031.2
20220812155445 20 0 0.0 0.0 0.00 0.00 0.00 49 1031.2
20220812154544 19 0 0.0 0.0 0.00 0.00 0.00 50 1031.1
20220812153623 17 0 0.0 0.0 0.00 0.00 0.00 55 1031.1
20220812152723 16 0 0.0 0.0 0.00 0.00 0.00 59 1031.1
20220812151823 15 0 0.0 0.0 0.00 0.00 0.00 64 1031.1
20220812150943 13 0 0.0 0.0 0.00 0.00 0.00 73 1031.1
20220812150044 12 0 0.0 0.0 0.00 0.00 0.00 77 1031.1
20220812145423 11 0 0.0 0.0 0.00 0.00 0.00 80 1031.1
20220812144523 11 0 0.0 0.0 0.00 0.00 0.00 83 1031.0
20220812143602 11 0 0.0 0.0 0.00 0.00 0.00 83 1031.0
20220812142702 10 0 0.0 0.0 0.00 0.00 0.00 83 1031.0
20220812141802 10 0 0.0 0.0 0.00 0.00 0.00 84 1031.0
20220812140944 10 0 0.0 0.0 0.00 0.00 0.00 84 1031.0
20220812140002 10 0 0.0 0.0 0.00 0.00 0.00 84 1031.0
20220812135402 9 0 0.0 0.0 0.00 0.00 0.00 83 1031.0
20220812134502 9 0 0.0 0.0 0.00 0.00 0.00 84 1030.6
20220812133602 8 0 0.0 0.0 0.00 0.00 0.00 82 1030.6
20220812132723 8 0 0.0 0.0 0.00 0.00 0.00 83 1030.6
20220812131823 8 0 0.0 0.0 0.00 0.00 0.00 82 1030.6
20220812130902 8 0 0.0 0.0 0.00 0.00 0.00 82 1030.6
20220812130002 8 0 0.0 0.0 0.00 0.00 0.00 81 1030.6
20220812125423 8 0 0.0 0.0 0.00 0.00 0.00 82 1030.6
20220812124523 8 0 0.0 0.0 0.00 0.00 0.00 81 1030.6
20220812123602 8 0 0.0 0.0 0.00 0.00 0.00 81 1030.6
20220812122723 8 0 0.0 0.0 0.00 0.00 0.00 81 1030.6
20220812121802 8 0 0.0 0.0 0.00 0.00 0.00 81 1030.6
20220812120902 8 0 0.0 0.0 0.00 0.00 0.00 81 1030.6
20220812120023 8 0 0.0 0.0 0.00 0.00 0.00 81 1030.6
20220812115402 8 0 0.0 0.0 0.00 0.00 0.00 82 1030.6
20220812114544 8 0 0.0 0.0 0.00 0.00 0.00 82 1030.2
20220812113602 8 0 0.0 0.0 0.00 0.00 0.00 82 1030.2
20220812112744 8 0 0.0 0.0 0.00 0.00 0.00 81 1030.2
20220812111802 8 0 0.0 0.0 0.00 0.00 0.00 81 1030.2
20220812110944 8 0 0.0 0.0 0.00 0.00 0.00 80 1030.2
20220812110024 9 0 0.0 0.0 0.00 0.00 0.00 80 1030.2
20220812105423 9 0 0.0 0.0 0.00 0.00 0.00 80 1030.2
20220812104544 9 0 0.0 0.0 0.00 0.00 0.00 81 1030.2
20220812103623 9 0 0.0 0.0 0.00 0.00 0.00 81 1030.2
20220812102744 9 0 0.0 0.0 0.00 0.00 0.00 80 1030.2
20220812101802 9 0 0.0 0.0 0.00 0.00 0.00 79 1030.2
20220812100902 10 0 0.0 0.0 0.00 0.00 0.00 79 1030.2
20220812100023 10 0 0.0 0.0 0.00 0.00 0.00 78 1030.2
20220812095444 10 0 0.0 0.0 0.00 0.00 0.00 78 1030.2
20220812094523 10 0 0.0 0.0 0.00 0.00 0.00 77 1030.2
20220812093602 10 0 0.0 0.0 0.00 0.00 0.00 77 1030.2
20220812092723 10 0 0.0 0.0 0.00 0.00 0.00 76 1030.2
20220812091823 10 0 0.0 0.0 0.00 0.00 0.00 75 1030.2
20220812090923 10 0 0.0 0.0 0.00 0.00 0.00 76 1030.2
20220812090002 10 0 0.0 0.0 0.00 0.00 0.00 75 1030.2
20220812085402 10 0 0.0 0.0 0.00 0.00 0.00 74 1030.2
20220812084502 11 0 0.0 0.0 0.00 0.00 0.00 76 1029.8
20220812083623 11 0 0.0 0.0 0.00 0.00 0.00 74 1029.8
20220812082744 11 0 0.0 0.0 0.00 0.00 0.00 75 1029.8
20220812081823 11 0 0.0 0.0 0.00 0.00 0.00 74 1029.8
20220812080902 11 0 0.0 0.0 0.00 0.00 0.00 73 1029.8
20220812080023 11 0 0.0 0.0 0.00 0.00 0.00 74 1029.8
20220812075402 11 0 0.0 0.0 0.00 0.00 0.00 73 1029.8
20220812074502 11 0 0.0 0.0 0.00 0.00 0.00 73 1029.6
20220812073602 11 0 0.0 0.0 0.00 0.00 0.00 71 1029.6
20220812072723 11 0 0.0 0.0 0.00 0.00 0.00 70 1029.6
20220812071844 11 0 0.0 0.0 0.00 0.00 0.00 70 1029.6
20220812070902 11 0 0.0 0.0 0.00 0.00 0.00 72 1029.6
20220812070024 11 0 0.0 0.0 0.00 0.00 0.00 71 1029.6
20220812065402 12 0 0.0 0.0 0.00 0.00 0.00 71 1029.6
20220812064502 12 0 0.0 0.0 0.00 0.00 0.00 71 1030.1
20220812063602 12 0 0.0 0.0 0.00 0.00 0.00 69 1030.1
20220812062744 12 0 0.0 0.0 0.00 0.00 0.00 71 1030.1
20220812061802 12 0 0.0 0.0 0.00 0.00 0.00 71 1030.1
20220812060944 12 0 0.0 0.0 0.00 0.00 0.00 70 1030.1
20220812060009 12 0 0.0 0.0 0.00 0.00 0.00 69 1030.1
20220812055404 12 0 0.0 0.0 0.00 0.00 0.00 68 1030.1
20220812054523 12 0 0.0 0.0 0.00 0.00 0.00 72 1030.0
20220812053644 12 0 0.0 0.0 0.00 0.00 0.00 70 1030.0
20220812052723 12 0 0.0 0.0 0.00 0.00 0.00 72 1030.0
20220812051802 13 0 0.0 0.0 0.00 0.00 0.00 69 1030.0
20220812050944 13 0 0.0 0.0 0.00 0.00 0.00 71 1030.0
20220812050023 13 0 0.0 0.0 0.00 0.00 0.00 70 1030.0
20220812045423 13 0 0.0 0.0 0.00 0.00 0.00 72 1030.0
20220812044523 13 0 0.0 0.0 0.00 0.00 0.00 70 1029.8
20220812043602 13 0 0.0 0.0 0.00 0.00 0.00 70 1029.8
20220812042723 14 0 0.0 0.0 0.00 0.00 0.00 66 1029.8
20220812041802 14 0 0.0 0.0 0.00 0.00 0.00 70 1029.8
20220812040923 14 0 0.0 0.0 0.00 0.00 0.00 70 1029.8
20220812040002 15 0 0.0 0.0 0.00 0.00 0.00 70 1029.8
20220812035444 15 0 0.0 0.0 0.00 0.00 0.00 67 1029.8
20220812034544 15 0 0.0 0.0 0.00 0.00 0.00 67 1029.4
20220812033602 15 0 0.0 0.0 0.00 0.00 0.00 68 1029.4
20220812032723 15 0 0.0 0.0 0.00 0.00 0.00 68 1029.4
20220812031844 15 0 0.0 0.0 0.00 0.00 0.00 65 1029.4
20220812030902 16 0 0.0 0.0 0.00 0.00 0.00 64 1029.4
20220812030024 16 0 0.0 0.0 0.00 0.00 0.00 66 1029.4
20220812025423 16 0 0.0 0.0 0.00 0.00 0.00 65 1029.4
20220812024503 16 0 0.0 0.0 0.00 0.00 0.00 66 1028.7
20220812023602 17 0 0.0 0.0 0.00 0.00 0.00 68 1028.7
20220812022723 17 0 0.0 0.0 0.00 0.00 0.00 63 1028.7
20220812021844 17 0 0.0 0.0 0.00 0.00 0.00 67 1028.7
20220812020902 18 0 0.0 0.0 0.00 0.00 0.00 65 1028.7
20220812020023 18 0 0.0 0.0 0.00 0.00 0.00 66 1028.7
20220812015402 18 0 0.0 0.0 0.00 0.00 0.00 67 1028.7
20220812014502 18 0 0.0 0.0 0.00 0.00 0.00 66 1028.4
20220812013644 18 0 0.0 0.0 0.00 0.00 0.00 64 1028.4
20220812012744 19 0 0.0 0.0 0.00 0.00 0.00 63 1028.4
20220812011802 20 0 0.0 0.0 0.00 0.00 0.00 58 1028.4
20220812010944 20 0 0.0 0.0 0.00 0.00 0.00 60 1028.4
20220812010002 20 0 0.0 0.0 0.00 0.00 0.00 62 1028.4
20220812005402 20 0 0.0 0.0 0.00 0.00 0.00 62 1028.4
20220812004523 20 0 0.0 0.0 0.00 0.00 0.00 58 1028.4
20220812003644 20 0 0.0 0.0 0.00 0.00 0.00 60 1028.4
20220812002744 21 0 0.0 0.0 0.00 0.00 0.00 59 1028.4
20220812001802 21 0 0.0 0.0 0.00 0.00 0.00 56 1028.4
20220812000944 21 0 0.0 0.0 0.00 0.00 0.00 52 1028.4
20220812000024 21 0 0.0 0.0 0.00 0.00 0.00 51 1028.4
20220811235402 22 0 0.0 0.0 0.00 0.00 0.00 51 1028.4
20220811234544 22 0 0.0 0.0 0.00 0.00 0.00 54 1028.7
20220811233623 22 67 0.0 1.6 0.00 0.00 0.00 47 1028.7
20220811232723 23 85 0.0 1.6 0.00 0.00 0.00 43 1028.7
20220811231844 23 85 0.0 3.2 0.00 0.00 0.00 43 1028.7
20220811230902 24 85 0.0 4.8 0.00 0.00 0.00 41 1028.7
20220811230024 24 116 0.0 6.4 0.00 0.00 0.00 35 1028.7
20220811225444 24 101 1.6 6.4 0.00 0.00 0.00 39 1028.7
20220811224524 23 56 0.0 3.2 0.00 0.00 0.00 45 1028.8
20220811223644 24 70 1.6 6.4 0.00 0.00 0.00 42 1028.8
20220811222702 25 122 1.6 6.4 0.00 0.00 0.00 35 1028.8
20220811221802 24 44 0.0 4.8 0.00 0.00 0.00 45 1028.8
20220811220923 24 49 0.0 4.8 0.00 0.00 0.00 41 1028.8
20220811220045 23 64 0.0 4.8 0.00 0.00 0.00 40 1028.8
20220811215402 24 87 1.6 6.4 0.00 0.00 0.00 41 1028.8
20220811214503 24 142 1.6 6.4 0.00 0.00 0.00 39 1028.8
20220811213602 24 118 3.2 11.3 0.00 0.00 0.00 35 1028.8
20220811212702 24 104 3.2 9.7 0.00 0.00 0.00 36 1028.8
20220811211823 24 104 3.2 9.7 0.00 0.00 0.00 39 1028.8
20220811210902 25 100 3.2 14.5 0.00 0.00 0.00 36 1028.8
20220811210003 25 109 3.2 9.7 0.00 0.00 0.00 40 1028.8
20220811205403 25 106 4.8 11.3 0.00 0.00 0.00 35 1028.8
20220811204523 26 99 4.8 16.1 0.00 0.00 0.00 38 1029.5
20220811203644 27 87 4.8 17.7 0.00 0.00 0.00 34 1029.5
20220811202723 27 84 3.2 9.7 0.00 0.00 0.00 34 1029.5
20220811201823 25 301 1.6 4.8 0.00 0.00 0.00 43 1029.5
20220811200923 25 108 4.8 12.9 0.00 0.00 0.00 40 1029.5
20220811200003 25 101 1.6 9.7 0.00 0.00 0.00 37 1029.5
20220811195402 25 78 1.6 6.4 0.00 0.00 0.00 38 1029.5
20220811194502 25 83 1.6 4.8 0.00 0.00 0.00 32 1029.5
20220811193623 25 72 1.6 4.8 0.00 0.00 0.00 33 1029.5
20220811192723 24 167 0.0 4.8 0.00 0.00 0.00 39 1029.5
20220811191802 25 294 1.6 6.4 0.00 0.00 0.00 32 1029.5
20220811190923 25 164 0.0 4.8 0.00 0.00 0.00 35 1029.5
20220811190024 27 138 1.6 8.0 0.00 0.00 0.00 30 1029.5
20220811185423 27 109 1.6 11.3 0.00 0.00 0.00 29 1029.5
20220811184544 28 108 1.6 6.4 0.00 0.00 0.00 27 1030.3
20220811183644 28 81 1.6 11.3 0.00 0.00 0.00 29 1030.3
20220811182744 29 116 6.4 17.7 0.00 0.00 0.00 23 1030.3
20220811181802 28 65 3.2 17.7 0.00 0.00 0.00 27 1030.3
20220811180902 27 56 1.6 9.7 0.00 0.00 0.00 31 1030.3
20220811180023 27 290 3.2 9.7 0.00 0.00 0.00 31 1030.3
20220811175402 27 290 3.2 11.3 0.00 0.00 0.00 32 1030.3
20220811174524 27 343 1.6 4.8 0.00 0.00 0.00 32 1030.3
20220811173644 26 141 1.6 6.4 0.00 0.00 0.00 32 1030.3
20220811172724 26 264 3.2 8.0 0.00 0.00 0.00 31 1030.3
20220811171802 26 283 1.6 11.3 0.00 0.00 0.00 35 1030.3